Location: Newark
(53.6914°N, 19.9392°E)
Time: 08:42:53
(UTC+00:00)

X-37B - Visible Passes

Search period start: 01 October 2020 00:00
Search period end: 11 October 2020 00:00
Orbit: 386 x 387 km, 45.0° (Epoch: 18 September)

Date Brightness Start Highest point End Pass type
(mag) Time Alt. Az. Time Alt. Az. Time Alt. Az.
05 Oct 2.9 17:54:49 10° SSW 17:55:54 13° S 17:55:54 13° S visible
06 Oct 3.0 16:57:15 10° S 16:58:17 11° SSE 16:59:18 10° SE visible
06 Oct 3.4 18:31:55 10° SW 18:32:15 12° SW 18:32:15 12° SW visible
07 Oct 2.6 17:33:41 10° SSW 17:35:47 16° S 17:36:16 16° SSE visible
08 Oct 2.9 16:35:41 10° SSW 16:37:27 14° SSE 16:39:14 10° SE visible
08 Oct 2.9 18:11:09 10° SW 18:12:31 16° SSW 18:12:31 16° SSW visible
09 Oct 2.7 17:12:47 10° SW 17:15:00 17° S 17:16:30 13° SE visible
10 Oct 2.8 17:50:32 10° SW 17:52:33 16° S 17:52:44 16° S visible
